SCP
0 0 0 0 0 0 0 0 0 0 0 0 0 0 0 0 0 0 0 0 0 0 0 0 0 0 0 0 0 0 0 0 0 0 0 0 0 0 0 0 0 0 0
0 0 0 0 0 0 0 0 0 0 0 0 0 0 0 0 0 0 0 0 0 0 0 0 0 0 0 0 0 0 0 0 0 0 0 0 0 0 0 0 0 0 0
0 0 0 0 0 0 0 0 0 0 0 0 0 0 0 0 0 0 0 0 0 0 0 0 0 0 0 0 0 0 0 0 0 0 0 0 0 0 0 0 0 0 0
0 0 0 0 0 0 0 0 0 0 0 0 0 0 0 0 0 0 0 0 0 0 0 0 0 0 0 0 0 0 0 0 0 0 0 0 0 0 0 0 0 0 0
0 0 0 0 0 0 0 0 0 0 0 0 0 0 0 0 0 0 0 0 0 0 0 0 0 0 0 0 0 0 0 0 0 0 0 0 0 0 0 0 0 0 0
0 0 0 0 0 0 0 0 0 0 0 0 0 0 0 0 0 0 0 0 0 0 0 0 0 0 0 0 0 0 0 0 0 0 0 0 0 0 0 0 0 0 0
0 0 0 0 0 0 0 0 0 0 0 0 0 0 0 0 0 0 0 0 0 0 0 0 0 0 0 0 0 0 0 0 0 0 0 0 0 0 0 0 0 0 0
0 0 0 0 0 0 0 0 0 0 0 0 0 0 0 0 0 0 0 0 0 0 0 0 0 0 0 0 0 0 0 0 0 0 0 0 0 0 0 0 0 0 0
0 0 0 0 0 0 0 0 0 0 0 0 0 0 0 0 0 0 0 0 0 0 0 0 0 0 0 0 0 0 0 0 0 0 0 0 0 0 0 0 0 0 0
0 0 0 0 0 0 0 0 0 0 0 0 0 0 0 0 0 0 0 0 0 0 0 0 0 0 0 0 0 0 0 0 0 0 0 0 0 0 0 0 0 0 0
0 0 0 0 0 0 0 0 0 0 0 0 0 0 0 0 0 0 0 0 0 0 0 0 0 0 0 0 0 0 0 0 0 0 0 0 0 0 0 0 0 0 0
0 0 0 0 0 0 0 0 0 0 0 0 0 0 0 0 0 0 0 0 0 0 0 0 0 0 0 0 0 0 0 0 0 0 0 0 0 0 0 0 0 0 0
0 0 0 0 0 0 0 0 0 0 0 0 0 0 0 0 0 0 0 0 0 0 0 0 0 0 0 0 0 0 0 0 0 0 0 0 0 0 0 0 0 0 0
0 0 0 0 0 0 0 0 0 0 0 0 0 0 0 0 0 0 0 0 0 0 0 0 0 0 0 0 0 0 0 0 0 0 0 0 0 0 0 0 0 0 0
0 0 0 0 0 0 0 0 0 0 0 0 0 0 0 0 0 0 0 0 0 0 0 0 0 0 0 0 0 0 0 0 0 0 0 0 0 0 0 0 0 0 0
0 0 0 0 0 0 0 0 0 0 0 0 0 0 0 0 0 0 0 0 0 0 0 0 0 0 0 0 0 0 0 0 0 0 0 0 0 0 0 0 0 0 0
0 0 0 0 0 0 0 0 0 0 0 0 0 0 0 0 0 0 0 0 0 0 0 0 0 0 0 0 0 0 0 0 0 0 0 0 0 0 0 0 0 0 0
0 0 0 0 0 0 0 0 0 0 0 0 0 0 0 0 0 0 0 0 0 0 0 0 0 0 0 0 0 0 0 0 0 0 0 0 0 0 0 0 0 0 0
0 0 0 0 0 0 0 0 0 0 0 0 0 0 0 0 0 0 0 0 0 0 0 0 0 0 0 0 0 0 0 0 0 0 0 0 0 0 0 0 0 0 0
0 0 0 0 0 0 0 0 0 0 0 0 0 0 0 0 0 0 0 0 0 0 0 0 0 0 0 0 0 0 0 0 0 0 0 0 0 0 0 0 0 0 0
0 0 0 0 0 0 0 0 0 0 0 0 0 0 0 0 0 0 0 0 0 0 0 0 0 0 0 0 0 0 0 0 0 0 0 0 0 0 0 0 0 0 0
0 0 0 0 0 0 0 0 0 0 0 0 0 0 0 0 0 0 0 0 0 0 0 0 0 0 0 0 0 0 0 0 0 0 0 0 0 0 0 0 0 0 0
0 0 0 0 0 0 0 0 0 0 0 0 0 0 0 0 0 0 0 0 0 0 0 0 0 0 0 0 0 0 0 0 0 0 0 0 0 0 0 0 0 0 0
0 0 0 0 0 0 0 0 0 0 0 0 0 0 0 0 0 0 0 0 0 0 0 0 0 0 0 0 0 0 0 0 0 0 0 0 0 0 0 0 0 0 0
0 0 0 0 0 0 0 0 0 0 0 0 0 0 0 0 0 0 0 0 0 0 0 0 0 0 0 0 0 0 0 0 0 0 0 0 0 0 0 0 0 0 0
0 0 0 0 0 0 0 0 0 0 0 0 0 0 0 0 0 0 0 0 0 0 0 0 0 0 0 0 0 0 0 0 0 0 0 0 0 0 0 0 0 0 0
Wind_Speed
5 4 4 4 3 3 3 3 3 2 2 2 2 2 2 2 2 2 2 1 1 1 1 1 1 1 1 0 0 0 1 1 3 4 3 3 3 4 5 4 4 5 6
5 5 4 4 4 4 3 3 3 3 3 3 3 3 2 2 2 2 2 2 2 1 1 1 1 1 1 1 1 1 1 1 2 5 4 3 4 4 4 5 5 5 5
5 5 5 4 4 4 4 3 3 3 3 2 2 3 2 2 2 2 2 2 2 2 2 2 1 1 1 1 1 1 1 2 2 3 5 4 4 3 4 5 5 4 5
5 5 5 5 5 4 4 4 4 3 3 3 2 2 2 2 2 2 2 2 2 2 1 1 1 2 2 2 2 2 1 2 2 3 4 4 4 3 3 4 5 4 5
6 6 5 4 4 4 4 4 3 3 3 3 3 2 2 2 2 3 3 3 2 2 1 1 2 2 2 2 2 2 2 2 2 3 4 4 4 4 4 3 5 6 6
6 5 4 4 4 4 4 4 4 3 3 3 3 3 3 2 3 4 3 3 3 3 2 2 2 2 2 2 3 3 3 3 4 4 4 5 6 5 4 4 5 6 6
5 4 4 4 4 4 4 4 4 4 3 3 3 3 3 3 4 4 4 3 3 2 2 2 2 2 2 2 3 4 4 6 6 5 6 6 6 5 4 5 5 5 6
5 5 5 5 5 4 4 4 4 3 3 3 3 3 3 3 4 4 4 3 2 2 3 3 3 2 3 3 2 3 4 4 6 5 5 6 5 4 4 4 5 5 6
5 5 5 5 5 5 5 4 4 3 3 3 2 3 3 3 4 4 4 2 2 2 2 2 3 3 4 4 3 3 4 4 5 6 7 7 8 8 5 3 3 4 5
5 4 4 4 5 5 5 4 3 3 3 3 2 2 3 3 4 5 5 2 2 2 2 2 3 3 4 4 3 3 5 5 3 4 5 7 6 7 7 4 3 4 4
4 4 4 4 4 4 3 3 3 3 3 2 2 2 2 3 4 5 5 3 3 2 2 2 2 4 5 5 5 4 6 5 2 3 4 4 4 3 4 3 3 4 5
4 4 4 3 3 3 4 3 3 4 3 3 2 2 2 2 3 4 6 6 4 3 3 2 2 4 6 6 5 5 7 5 2 3 3 4 4 4 4 3 4 5 6
4 3 3 3 3 3 4 4 3 3 3 3 3 3 2 2 3 5 6 6 6 3 2 3 4 5 5 4 6 6 4 2 2 3 4 5 4 4 3 3 4 4 6
4 3 3 3 3 3 3 3 4 4 4 4 4 3 3 2 3 3 3 3 4 4 3 2 4 5 5 4 4 4 3 3 3 4 4 4 3 3 3 3 4 4 5
3 3 3 3 3 3 3 3 4 4 5 5 5 4 4 4 4 5 4 3 3 3 2 1 2 2 2 2 2 3 2 3 3 4 4 4 4 4 4 3 3 3 4
3 3 3 3 3 3 3 2 4 5 5 7 7 5 4 5 5 6 7 7 7 6 3 3 3 3 4 4 4 3 3 4 4 4 4 4 5 5 5 4 3 4 6
4 3 3 3 3 3 3 3 2 3 6 7 8 8 8 7 7 7 7 7 7 6 4 4 4 4 4 4 4 4 4 4 3 4 5 5 5 5 5 5 5 5 6
3 3 3 3 3 3 4 3 3 3 3 3 5 8 8 8 8 8 7 5 4 4 4 5 5 5 5 5 5 5 4 4 4 4 5 5 5 5 5 5 5 6 6
3 3 3 3 3 3 3 3 3 4 4 3 2 3 5 7 7 7 5 4 4 5 5 5 5 5 5 5 5 5 5 5 5 5 5 5 5 5 6 6 6 7 6
3 3 3 3 3 3 3 3 4 4 4 4 4 3 2 2 3 4 4 4 4 5 5 5 5 5 5 4 4 4 4 5 5 5 5 5 5 5 6 6 6 6 6
3 3 4 3 3 4 4 4 4 4 4 4 4 4 5 3 4 5 4 5 5 5 5 5 5 4 4 4 4 4 5 5 5 5 5 5 5 5 5 5 5 5 6
3 3 3 4 3 3 3 3 4 4 5 5 4 4 6 4 4 4 5 5 4 4 4 4 4 4 4 4 4 4 5 6 5 5 5 5 5 5 5 5 5 5 5
3 3 3 3 3 3 3 3 4 4 4 4 4 3 4 4 4 5 5 4 4 4 4 4 4 4 4 4 4 5 6 6 5 5 5 5 5 5 5 5 6 6 6
3 4 4 3 3 3 4 4 4 4 4 4 4 4 4 4 5 5 4 4 4 4 4 4 5 6 6 5 4 5 5 6 5 5 6 6 6 5 5 5 6 6 6
3 3 4 4 4 4 4 4 4 4 4 4 4 4 4 4 5 5 4 4 4 5 5 5 4 5 7 8 7 6 8 9 8 5 4 5 6 6 6 6 6 6 5
3 4 4 4 4 4 4 4 4 4 5 5 4 4 4 5 5 5 4 4 4 5 5 5 6 7 8 7 8 9 9 9 8 7 5 5 6 6 6 5 6 6 6
Wind_Direction
179 173 168 170 168 163 164 176 171 157 148 153 152 148 150 146 154 149 141 137 136 125 121 136 173 148 146 171 170 219 254 236 258 284 289 301 299 304 311 306 299 296 299
176 171 171 170 167 166 171 172 162 160 156 157 151 146 155 155 154 156 157 151 153 162 170 164 190 175 188 214 200 223 242 246 250 282 296 299 293 298 303 304 307 305 300
171 172 170 172 174 175 175 168 161 161 156 154 146 151 159 160 158 160 158 151 154 167 173 175 194 174 203 215 211 223 246 270 268 274 289 294 294 298 309 306 306 303 304
171 173 176 181 181 178 173 167 165 160 156 155 152 160 161 162 159 159 159 155 159 171 176 181 194 195 204 207 223 231 251 271 273 276 283 292 292 300 307 310 315 316 310
171 176 185 179 175 169 168 165 159 156 161 156 155 161 161 165 171 167 165 165 170 178 184 200 206 215 225 227 237 241 245 252 267 273 278 289 294 308 307 308 306 312 306
171 178 175 166 162 165 167 159 154 156 158 158 170 171 173 183 168 171 163 169 180 184 196 208 213 209 230 254 272 276 264 254 260 264 275 279 284 290 298 301 305 315 311
167 168 165 165 167 170 163 156 162 167 164 168 176 170 177 180 175 176 181 174 184 194 204 211 227 222 215 226 256 276 280 278 268 261 265 269 278 282 287 289 291 291 288
164 168 168 167 169 165 161 169 173 168 172 176 179 177 176 186 183 184 185 185 195 214 218 215 217 226 225 232 236 255 265 271 273 267 262 270 276 283 273 274 283 291 289
171 175 174 171 170 168 174 178 172 165 172 176 171 173 181 194 189 191 185 183 209 232 232 226 224 229 242 244 237 253 272 275 283 279 276 279 287 294 300 306 301 302 298
181 175 167 168 174 178 179 170 162 167 177 172 177 183 190 200 197 196 192 189 212 233 238 238 237 239 254 247 233 242 264 276 287 296 289 289 286 287 288 273 265 273 285
164 156 157 165 172 172 165 156 157 163 160 167 181 196 200 204 210 208 204 197 208 221 233 238 240 252 259 258 255 247 262 281 284 284 290 291 289 283 281 271 260 253 258
146 152 160 165 168 163 161 159 159 161 166 179 188 212 218 212 212 219 218 216 210 211 232 238 244 254 258 261 262 270 279 286 283 287 287 288 290 289 288 281 270 261 254
143 158 161 159 165 165 167 168 167 173 182 194 198 217 226 214 224 226 224 225 227 223 229 244 262 269 269 270 275 280 282 267 267 272 274 276 278 280 285 288 286 278 273
158 166 163 162 165 168 176 178 183 188 194 202 209 219 225 221 218 216 217 221 226 231 241 251 263 268 269 274 287 281 263 251 250 260 270 276 281 280 279 282 290 299 297
164 167 170 172 174 180 190 198 201 206 201 204 211 209 210 225 228 217 206 208 204 207 202 224 243 256 264 270 271 261 254 250 253 258 265 275 280 281 283 282 277 281 277
171 178 181 178 181 186 191 216 232 225 226 229 228 223 226 231 232 226 230 228 222 214 208 230 239 240 248 253 257 259 250 248 252 258 260 265 272 276 282 284 273 270 277
184 186 187 185 187 191 196 202 231 247 238 239 238 238 237 239 237 235 236 235 229 221 227 237 240 241 245 248 249 250 253 252 249 252 258 262 265 271 275 278 276 275 278
192 191 192 196 198 201 206 212 216 223 240 251 247 244 245 249 248 245 241 232 235 230 231 239 246 246 246 248 249 251 255 254 249 252 256 258 258 263 269 271 272 271 279
194 197 200 204 205 208 210 213 218 226 235 247 255 249 246 251 250 248 233 222 229 236 236 241 244 247 247 247 249 251 252 253 253 253 255 256 254 256 262 266 270 272 272
204 208 203 206 207 210 213 217 222 227 233 236 240 243 225 215 231 239 230 228 232 240 241 245 248 248 249 249 250 249 252 254 255 254 259 259 255 252 259 264 266 269 270
205 209 207 212 215 216 217 222 225 228 234 240 244 241 231 218 228 234 234 233 235 241 244 248 251 251 250 252 253 252 253 257 255 254 255 256 254 257 262 264 266 266 271
204 206 209 217 222 225 229 229 226 232 237 243 253 248 242 236 234 240 242 244 243 244 244 247 251 247 244 247 252 257 259 260 261 262 263 262 258 258 260 262 268 273 272
212 214 216 220 221 226 231 233 234 234 236 238 241 241 236 236 238 240 243 245 245 245 243 244 252 255 250 247 243 242 249 254 257 259 264 267 264 259 258 261 263 268 271
216 216 217 220 221 224 229 233 236 240 242 241 239 239 240 241 244 246 247 248 248 248 245 245 249 254 254 255 253 249 251 258 259 253 247 253 260 260 257 261 260 260 264
215 217 219 221 222 227 233 238 240 240 243 246 244 242 241 241 245 247 247 246 247 250 251 250 253 254 254 255 257 257 259 264 262 252 242 244 252 257 258 259 259 261 263
221 222 225 225 226 228 231 236 240 244 246 248 247 248 247 245 246 247 246 245 247 252 255 253 254 257 260 259 259 264 267 266 261 251 242 239 244 250 250 253 255 253 256